Das Wetter in  D-61279 Heinzenberg / Taunus





Wetter Minimum- & Maximum-Werte im Juli 2017

Standort: Heinzenberg / Taunus - Höhe 297 m         8° 24' 1" Ost 50° 21' 51" Nord
(   3-stündige Aktualisierung    letzte Aktualisierung um 20:46 am 31.07.2017  )


Messgrösse

Minimum

Maximum

Durchschnitt

Temperatur West /
Luftfeuchte West
Anklicken für Monats-Diagramm

7,4 °C

05:49
13.07.2017

37 %

15:53
06.07.2017

33,8 °C

15:53
06.07.2017

93 %

17:33
25.07.2017

Temp

18,7 °C

Feuchte

74 %

Temperatur Ost /
Luftfeuchte Ost
Anklicken für Monats-Diagramm

7,8 °C

06:19
13.07.2017

--

--
--

34,0 °C

15:48
06.07.2017

--

--
--

19,1 °C

--

Luftdruck Anklicken für Monats-Diagramm

1004,0 hPa

00:09
26.07.2017

1023,8 hPa

01:06
16.07.2017

1013,5 hPa

Taupunkt

5,7 °C

05:49
13.07.2017

20,9 °C

18:46
22.07.2017

13,6 °C

Windchill
( gefühlte Temperatur )

4,0 °C

21:28
25.07.2017

33,8 °C

15:53
06.07.2017

17,5 °C

Windgeschwindigkeit /
Windrichtung
Anklicken für Monats-Diagramm

---

61,2 km/h / W-SW

16:11
22.07.2017

7,9 km/h
W-SW

Helligkeit /
Sonnenschein
Anklicken für Monats-Diagramm
Anklicken für Monats-Diagramm

Sonnenschein:

203:59 Stunden

Max: 13:05 Std am
05.07.2017

124 klux

13:27
10.07.2017

38 klux

Solarstrahlung Anklicken für Monats-Diagramm

---

848 W/m²

13:27
10.07.2017

278 W/m²

Regenmenge
    Juli 2017
Anklicken für Monats-Diagramm

Insgesamt 181,2 l/m²

in 71:54 Stunden
an 22 Tagen

30,1 l/m²

16:48
25.07.2017

Gesamtmenge

181,2 l/m²

Regen-Tage
    Juli 2017
Anklicken für Monats-Diagramm

>   0 mm/Tag

>   2 mm/Tag

>   5 mm/Tag

> 10 mm/Tag

> 20 mm/Tag

22 Tage     
14 Tage     
10 Tage     
7 Tage     
4 Tage     

Eisige Tage Juli 2017 / 2016

Tmin ≤ -10°C     

0 Tage

/

0 Tage

Eistage Juli 2017 / 2016

Tmax <     0°C     

0 Tage

/

0 Tage

Frosttage Juli 2017 / 2016

Tmin ≤     0°C     

0 Tage

/

0 Tage

Kalte Tage Juli 2017 / 2016

Tmax <   10°C     

0 Tage

/

0 Tage

Warme Tage Juli 2017 / 2016

Tmax ≥   20°C     

26 Tage

/

30 Tage

Sommertage Juli 2017 / 2016

Tmax ≥   25°C     

16 Tage

/

18 Tage

Heisse Tage Juli 2017 / 2016

Tmax ≥   30°C     

7 Tage

/

4 Tage


Monatsdiagramm Juli 2017

Die Kurven zeigen den Durchschnittswert des jeweiligen Tages an


Wetter-Monatsübersicht Juli 2017
Datum
  Temperatur
   Luftdruck
   Wind
  Regen
   Luftfeuchte
   Helligkeit

Sonnen-
schein

Ø
Temp.

Min.
Temp.

Max.
Temp.

Ø
Luftdruck

Min.
Luftdruck

Max.
Luftdruck

Ø-Geschw.
Haupt-Richtg.

Max.
Wind

Menge /
Dauer

Ø
Feuchte

Min.
Feuchte

Max.
Feuchte

Ø
Helligkeit

Max.
Helligkeit

1.
Juli
15,0 °C13,0 °C
00:03
17,6 °C
12:08
1008,7 hPa1005,9 hPa
02:18
1014,2 hPa
23:59
14,6 km/h
W-SW
45,0 km/h
14:48  
6,7 l/m²
10:41 Stunden
83 %73 %
13:13
91 %
21:53
20,6 klux95,7 klux
11:53
55 Min 
2.
Juli
15,4 °C13,2 °C
06:34
19,1 °C
13:44
1017,6 hPa1014,2 hPa
00:04
1021,5 hPa
23:55
9,1 km/h
W
31,0 km/h
13:39  
0,6 l/m²
1:50 Stunden
85 %67 %
13:49
92 %
03:39
19,8 klux98,9 klux
13:34
1:40 Std 
3.
Juli
17,2 °C9,5 °C
06:40
25,0 °C
17:00
1020,5 hPa1017,3 hPa
18:15
1023,1 hPa
06:40
8,8 km/h
W
39,4 km/h
14:20  
---
40 Minuten
69 %41 %
16:45
91 %
07:15
52,7 klux110,0 klux
13:45
10:55 Std 
4.
Juli
18,9 °C11,3 °C
06:01
27,5 °C
17:56
1019,0 hPa1016,9 hPa
17:56
1021,1 hPa
09:46
5,2 km/h
NW
23,8 km/h
18:01  
---
64 %42 %
18:06
83 %
07:56
53 klux109 klux
11:56
12:51 Std 
5.
Juli
21,1 °C11,4 °C
05:52
30,8 °C
18:27
1016,3 hPa1013,4 hPa
18:47
1018,6 hPa
03:07
4,0 km/h
NW
22,1 km/h
12:22  
---
63 %42 %
16:47
84 %
07:37
53 klux109 klux
13:42
13:05 Std 
6.
Juli
21,0 °C13,3 °C
06:33
33,8 °C
15:53
1016,5 hPa1013,1 hPa
15:53
1018,5 hPa
06:33
3,9 km/h
NW
30,2 km/h
17:13  
17,0 l/m²
3:01 Stunden
69 %37 %
15:53
86 %
22:29
44 klux110 klux
15:33
8:50 Std 
7.
Juli
22,8 °C15,4 °C
06:14
30,8 °C
17:39
1013,8 hPa1012,4 hPa
17:39
1017,0 hPa
01:34
10,7 km/h
W-SW
38,6 km/h
01:24  
6,1 l/m²
1:35 Stunden
69 %42 %
17:49
90 %
07:44
50 klux110 klux
13:39
11:45 Std 
8.
Juli
22,4 °C14,3 °C
06:30
30,9 °C
16:40
1014,6 hPa1012,4 hPa
16:40
1016,3 hPa
06:30
5,4 km/h
NW
23,3 km/h
15:15  
---
63 %43 %
18:05
85 %
07:45
51 klux110 klux
13:30
10:50 Std 
9.
Juli
22,9 °C15,3 °C
05:36
30,6 °C
16:36
1011,3 hPa1007,5 hPa
19:41
1014,6 hPa
00:11
4,0 km/h
NW
35,0 km/h
23:37  
5,3 l/m²
50 Minuten
65 %44 %
17:06
83 %
07:16
51 klux107 klux
13:06
10:40 Std 
10.
Juli
19,0 °C16,2 °C
23:53
23,2 °C
17:02
1007,6 hPa1006,0 hPa
17:02
1009,9 hPa
23:53
5,1 km/h
W-SW
29,8 km/h
00:07  
20,7 l/m²
5:30 Stunden
86 %77 %
17:12
90 %
07:42
24 klux124 klux
13:27
2:00 Std 
11.
Juli
17,9 °C15,6 °C
09:03
23,6 °C
14:13
1011,1 hPa1008,9 hPa
03:13
1013,0 hPa
16:58
9,1 km/h
W
52,5 km/h
16:38  
3,5 l/m²
2:11 Stunden
79 %54 %
14:03
91 %
06:43
36 klux119 klux
14:08
4:45 Std 
12.
Juli
16,0 °C11,8 °C
23:54
19,2 °C
15:04
1010,8 hPa1006,4 hPa
15:04
1019,7 hPa
23:54
14,7 km/h
W-SW
41,8 km/h
16:29  
16,6 l/m²
5:10 Stunden
84 %78 %
07:24
90 %
12:14
21 klux123 klux
14:54
1:41 Std 
13.
Juli
14,8 °C7,4 °C
05:49
23,6 °C
18:29
1020,6 hPa1017,4 hPa
19:04
1023,4 hPa
06:29
1,3 km/h
NO
13,1 km/h
14:59  
---
71 %45 %
18:04
92 %
08:49
48 klux117 klux
13:44
8:55 Std 
14.
Juli
14,9 °C8,9 °C
04:50
23,8 °C
17:10
1016,1 hPa1013,2 hPa
17:10
1018,7 hPa
00:50
6,6 km/h
NW
45,4 km/h
18:55  
1,8 l/m²
2:15 Stunden
72 %43 %
17:45
87 %
22:30
35 klux112 klux
13:50
4:30 Std 
15.
Juli
14,9 °C10,1 °C
04:35
21,6 °C
17:05
1021,3 hPa1017,6 hPa
00:00
1023,7 hPa
23:46
8,1 km/h
W-NW
24,0 km/h
10:30  
0,2 l/m²
15 Minuten
74 %51 %
17:25
90 %
06:15
35 klux121 klux
13:50
5:16 Std 
16.
Juli
17,2 °C12,7 °C
01:06
21,0 °C
16:01
1022,5 hPa1020,8 hPa
19:26
1023,8 hPa
01:06
5,5 km/h
W-SW
40,0 km/h
21:01  
---
75 %64 %
12:01
83 %
07:31
27 klux112 klux
15:16
1:05 Std 
17.
Juli
20,2 °C15,2 °C
06:37
26,1 °C
18:02
1020,2 hPa1018,1 hPa
18:42
1021,4 hPa
06:37
2,9 km/h
NW
19,2 km/h
14:22  
---
5 Minuten
75 %62 %
12:57
89 %
08:12
37 klux105 klux
12:47
7:15 Std 
18.
Juli
21,9 °C13,0 °C
06:08
31,7 °C
17:18
1017,0 hPa1012,3 hPa
18:33
1021,2 hPa
00:58
1,3 km/h
SO
17,5 km/h
18:28  
---
68 %43 %
18:28
88 %
08:08
51 klux107 klux
15:18
11:55 Std 
19.
Juli
23,0 °C15,4 °C
05:43
33,5 °C
16:33
1010,6 hPa1006,1 hPa
17:23
1014,0 hPa
02:43
7,0 km/h
W-SW
38,2 km/h
18:13  
3,8 l/m²
25 Minuten
69 %39 %
15:43
87 %
07:53
45 klux109 klux
15:08
10:25 Std 
20.
Juli
20,7 °C17,6 °C
23:50
26,1 °C
17:59
1009,5 hPa1008,5 hPa
00:09
1012,8 hPa
23:50
7,4 km/h
W-SW
32,8 km/h
16:39  
0,6 l/m²
2:15 Stunden
77 %56 %
19:29
90 %
07:49
32 klux117 klux
14:14
4:25 Std 
21.
Juli
20,6 °C13,0 °C
06:55
29,1 °C
18:00
1012,2 hPa1008,6 hPa
18:45
1014,4 hPa
06:55
2,4 km/h
NW
19,4 km/h
11:10  
---
65 %43 %
18:10
85 %
07:30
49 klux115 klux
12:15
10:00 Std 
22.
Juli
20,1 °C17,0 °C
06:26
26,2 °C
14:41
1011,3 hPa1009,7 hPa
00:01
1012,9 hPa
16:16
3,0 km/h
W-SW
61,2 km/h
16:11  
23,4 l/m²
3:25 Stunden
81 %58 %
14:46
89 %
08:26
37 klux116 klux
13:21
6:45 Std 
23.
Juli
17,6 °C14,9 °C
06:41
21,3 °C
18:06
1013,0 hPa1009,7 hPa
00:16
1014,2 hPa
07:26
15,3 km/h
W-SW
46,1 km/h
00:51  
10,0 l/m²
40 Minuten
72 %52 %
18:11
91 %
00:51
45 klux119 klux
12:36
8:40 Std 
24.
Juli
14,5 °C12,2 °C
23:58
19,5 °C
16:12
1008,5 hPa1006,4 hPa
16:12
1013,1 hPa
00:27
7,7 km/h
NW
28,6 km/h
13:32  
28,4 l/m²
8:30 Stunden
81 %65 %
16:22
90 %
09:57
28 klux117 klux
13:27
3:15 Std 
25.
Juli
13,2 °C12,1 °C
00:13
14,4 °C
13:28
1006,9 hPa1004,0 hPa
23:54
1009,4 hPa
00:13
15,3 km/h
W
39,5 km/h
21:28  
30,1 l/m²
16:51 Stunden
91 %86 %
00:03
93 %
17:33
12 klux33 klux
13:18
--- 
26.
Juli
16,2 °C13,0 °C
06:14
22,0 °C
16:44
1007,4 hPa1004,0 hPa
00:09
1010,2 hPa
23:25
12,8 km/h
W-NW
37,2 km/h
14:14  
2,7 l/m²
3:05 Stunden
83 %60 %
18:14
93 %
00:04
33,5 klux116,0 klux
14:19
4:45 Std 
27.
Juli
17,5 °C13,3 °C
00:25
21,8 °C
14:20
1007,4 hPa1006,1 hPa
14:20
1009,2 hPa
00:25
6,3 km/h
W-SW
51,7 km/h
14:50  
0,6 l/m²
1:45 Stunden
83 %72 %
14:30
89 %
08:45
22 klux106 klux
16:10
40 Min 
28.
Juli
17,2 °C12,1 °C
06:36
21,2 °C
15:06
1011,7 hPa1006,8 hPa
00:01
1014,9 hPa
22:27
14,0 km/h
W
44,7 km/h
12:36  
---
72 %55 %
16:01
89 %
02:01
40 klux122 klux
13:26
6:20 Std 
29.
Juli
20,4 °C15,0 °C
05:37
26,8 °C
17:02
1012,5 hPa1010,0 hPa
20:22
1014,2 hPa
03:22
9,0 km/h
W-SW
35,8 km/h
10:32  
---
5 Minuten
69 %58 %
16:27
77 %
03:22
34 klux117 klux
13:57
4:35 Std 
30.
Juli
22,9 °C19,2 °C
23:59
26,3 °C
13:13
1008,9 hPa1007,1 hPa
08:23
1011,6 hPa
23:59
16,1 km/h
W-SW
49,2 km/h
13:08  
---
65 %56 %
13:18
73 %
03:53
42 klux109 klux
12:18
7:55 Std 
31.
Juli
21,6 °C16,0 °C
06:19
27,3 °C
18:39
1012,8 hPa1011,6 hPa
00:04
1014,1 hPa
07:14
8,4 km/h
W-SW
38,2 km/h
12:24  
3,0 l/m²
50 Minuten
69 %56 %
13:24
86 %
23:39
42 klux117 klux
13:49
7:21 Std 



Juli
2017

Temperatur

  

Luftdruck

  

Wind

  

Regen

  

Luftfeuchte

  

Helligkeit

Sonnen-
schein

Ø

Min

Max

Ø

Min

Max

Ø

Max

Max

Ø

Min

Max

Ø

Max

Max

18,7 °C

7,4 °C

05:49 Uhr
13.07.2017

33,8 °C

15:53 Uhr
06.07.2017

1013,5 hPa

1004,0 hPa

00:09 Uhr
26.07.2017

1023,8 hPa

01:06 Uhr
16.07.2017

7,9 km/h

W-SW

61,2 km/h

16:11 Uhr
22.07.2017

30,1 l/m²

16:51 Stunden
25.07.2017

74 %

37 %

15:53 Uhr
06.07.2017

93 %

17:33 Uhr
25.07.2017

38 klux

124,0 klux

13:27 Uhr
10.07.2017

13:05 Std

am
05.07.2017

Gesamt

Gesamt

181,2 l/m²

22 Tage
71:54 h

203:59 Std


Wetter-Diagramme Juli 2017     Heinzenberg / Taunus   
TemperaturLuftfeuchte
SolarstrahlungLuftdruck
HelligkeitSonnenschein
RegenmengeRegendauer
Wind-GeschwindigkeitWind-Richtung